Weather History for Fayetteville, AR

Change the Weather History Date:

Saturday, April 13, 2013

  Actual Average Record
Temperature  
Mean Temperature 54 °F 56 °F  
Max Temperature 68 °F 68 °F 89 °F (1972)
Min Temperature 39 °F 44 °F 19 °F (1957)
Degree Days  
Heating Degree Days 11 10  
Month to date heating degree days 165 145  
Since 1 July heating degree days 3881 3974  
Cooling Degree Days 0 1  
Month to date cooling degree days 7 10  
Year to date cooling degree days 8 14  
Growing Degree Days 4 (Base 50)    
Moisture  
Dew Point 41 °F    
Average Humidity 63    
Maximum Humidity 86    
Minimum Humidity 39    
Precipitation  
Precipitation 0.02 in 0.15 in 0.65 in (2007)
Month to date precipitation 2.17 1.85  
Year to date precipitation 12.50 11.45  
Sea Level Pressure  
Sea Level Pressure 29.96 in    
Wind  
Wind Speed 6 mph (South)    
Max Wind Speed 17 mph    
Max Gust Speed 23 mph    
Visibility 10 miles    
Events Rain    
T = Trace of Precipitation, MM = Missing Value Source: NWS Daily Summary

Daily Weather History Graph

Daily Weather History Graph

Search for Another Location

Airport:

Trip Planner

Search our weather history database for the weather conditions in past years. The results will help you decide how hot, cold, wet, or windy it might be!

Date:

Astronomy

Apr. 13, 2013 Rise Set
Actual Time 6:45 AM CDT 7:48 PM CDT
Civil Twilight 6:19 AM CDT 8:15 PM CDT
Nautical Twilight 5:48 AM CDT 8:46 PM CDT
Astronomical Twilight 5:15 AM CDT 9:19 PM CDT
Moon 8:43 AM CDT (4/13) 11:08 PM CDT (4/13)
Length of Visible Light 13h 55m
Length of Day
13h 02m
Waxing Crescent, 10% of the Moon is Illuminated
Apr 13
Waxing Crescent
Apr 18
First Quarter
Apr 25
Full
May 2
Last Quarter
May 9
New

Hourly Weather History & Observations

Time (CDT) Temp. Windchill Dew Point Humidity Pressure Visibility Wind Dir Wind Speed Gust Speed Precip Events Conditions
12:53 AM 46.0 °F - 39.9 °F 79% 30.05 in 10.0 mi Calm Calm - N/A   Partly Cloudy
1:53 AM 44.1 °F - 39.0 °F 82% 30.06 in 10.0 mi Calm Calm - N/A   Partly Cloudy
2:53 AM 43.0 °F - 37.9 °F 82% 30.05 in 10.0 mi Calm Calm - N/A   Partly Cloudy
3:53 AM 41.0 °F - 37.9 °F 89% 30.04 in 10.0 mi Calm Calm - N/A   Mostly Cloudy
4:53 AM 41.0 °F - 37.9 °F 89% 30.04 in 10.0 mi Calm Calm - N/A   Mostly Cloudy
5:53 AM 39.0 °F - 36.0 °F 89% 30.06 in 10.0 mi Calm Calm - N/A   Scattered Clouds
6:53 AM 41.0 °F - 37.9 °F 89% 30.05 in 10.0 mi Calm Calm - N/A   Clear
7:53 AM 44.1 °F 42.5 °F 39.9 °F 85% 30.07 in 10.0 mi SSW 3.5 mph - N/A   Partly Cloudy
8:53 AM 50.0 °F - 39.9 °F 68% 30.07 in 10.0 mi Calm Calm - N/A   Partly Cloudy
9:53 AM 57.9 °F - 37.9 °F 47% 30.05 in 10.0 mi South 11.5 mph - N/A   Partly Cloudy
10:53 AM 59.0 °F - 37.9 °F 46% 30.05 in 10.0 mi South 9.2 mph - N/A   Overcast
11:53 AM 59.0 °F - 37.9 °F 46% 30.04 in 10.0 mi SSW 9.2 mph - N/A   Overcast
12:53 PM 62.1 °F - 39.0 °F 43% 30.01 in 10.0 mi SSE 9.2 mph - N/A   Overcast
1:53 PM 63.0 °F - 44.1 °F 50% 29.97 in 10.0 mi South 8.1 mph - 0.00 in Rain Light Rain
2:53 PM 59.0 °F - 46.9 °F 64% 29.95 in 10.0 mi South 5.8 mph - 0.01 in Rain Light Rain
3:53 PM 61.0 °F - 46.9 °F 60% 29.89 in 10.0 mi South 5.8 mph 16.1 mph 0.01 in Rain Light Rain
4:53 PM 66.9 °F - 43.0 °F 42% 29.86 in 10.0 mi SSE 8.1 mph - 0.00 in   Scattered Clouds
5:53 PM 68.0 °F - 42.1 °F 39% 29.84 in 10.0 mi South 9.2 mph - N/A   Clear
6:53 PM 66.0 °F - 43.0 °F 43% 29.83 in 10.0 mi South 11.5 mph - N/A   Clear
7:53 PM 62.1 °F - 42.1 °F 48% 29.81 in 10.0 mi South 9.2 mph 17.3 mph N/A   Clear
8:53 PM 61.0 °F - 42.1 °F 50% 29.81 in 10.0 mi South 9.2 mph - N/A   Clear
9:53 PM 60.1 °F - 43.0 °F 53% 29.82 in 10.0 mi South 10.4 mph - N/A   Clear
10:53 PM 57.9 °F - 43.0 °F 58% 29.82 in 10.0 mi South 6.9 mph - N/A   Clear
11:53 PM 62.1 °F - 43.0 °F 50% 29.80 in 10.0 mi SSE 11.5 mph 21.9 mph N/A   Clear